• In Uzbekistan
  • List of Countries
  • For 7 days
  • Water Temperature
  • Satellite Maps
  • Weather Map
  • Weather Widgets
  • user-avatar
    Login

    Hourly Weather Osh

    Today, 21 September, Friday

    Time Temperature Precipitation Wind Pressure Humidity
    00:00 +17°C° 0 mm 2 mps 657 mmHg 46%
    01:00 +18°C° 0 mm 1 mps 657 mmHg 47%
    02:00 +16°C° 0 mm 1 mps 657 mmHg 49%
    03:00 +16°C° 0 mm 1 mps 657 mmHg 51%
    04:00 +16°C° 0 mm 1 mps 657 mmHg 53%
    05:00 +15°C° 0 mm 1 mps 657 mmHg 55%
    06:00 +16°C° 0 mm 2 mps 657 mmHg 56%
    07:00 +16°C° 0 mm 2 mps 658 mmHg 57%
    08:00 +16°C° 0 mm 2 mps 658 mmHg 58%
    09:00 +17°C° 0 mm 2 mps 658 mmHg 56%
    10:00 +18°C° 0 mm 2 mps 658 mmHg 55%
    11:00 +19°C° 0 mm 2 mps 658 mmHg 53%
    12:00 +19°C° 0 mm 2 mps 658 mmHg 52%
    13:00 +20°C° 0 mm 2 mps 658 mmHg 51%
    14:00 +21°C° 0 mm 2 mps 658 mmHg 50%
    15:00 +20°C° 0.1 mm 2 mps 658 mmHg 51%
    16:00 +21°C° 0.1 mm 1 mps 658 mmHg 52%
    17:00 +21°C° 0.1 mm 1 mps 658 mmHg 53%
    18:00 +20°C° 0.1 mm 1 mps 659 mmHg 57%
    19:00 +19°C° 0.1 mm 1 mps 659 mmHg 61%
    20:00 +16°C° 0.1 mm 1 mps 659 mmHg 65%
    21:00 +16°C° 0 mm 1 mps 658 mmHg 66%
    22:00 +16°C° 0 mm 1 mps 658 mmHg 66%
    23:00 +15°C° 0 mm 1 mps 658 mmHg 67%

    Tomorrow, 22 September, Saturday

    Time Temperature Precipitation Wind Pressure Humidity
    00:00 +15°C° 0 mm 1 mps 658 mmHg 67%
    01:00 +15°C° 0 mm 1 mps 658 mmHg 68%
    02:00 +14°C° 0 mm 1 mps 657 mmHg 68%
    03:00 +14°C° 0 mm 1 mps 657 mmHg 68%
    04:00 +14°C° 0 mm 1 mps 657 mmHg 67%
    05:00 +13°C° 0 mm 1 mps 657 mmHg 67%
    06:00 +15°C° 0 mm 1 mps 658 mmHg 61%
    07:00 +16°C° 0 mm 1 mps 658 mmHg 55%
    08:00 +18°C° 0 mm 1 mps 659 mmHg 49%
    09:00 +20°C° 0 mm 1 mps 658 mmHg 45%
    10:00 +21°C° 0 mm 1 mps 658 mmHg 41%
    11:00 +21°C° 0 mm 2 mps 658 mmHg 38%
    12:00 +23°C° 0 mm 2 mps 658 mmHg 37%
    13:00 +24°C° 0 mm 2 mps 658 mmHg 36%
    14:00 +24°C° 0 mm 2 mps 657 mmHg 35%
    15:00 +24°C° 0 mm 2 mps 657 mmHg 37%
    16:00 +23°C° 0 mm 2 mps 657 mmHg 39%
    17:00 +23°C° 0 mm 2 mps 657 mmHg 41%
    18:00 +21°C° 0 mm 2 mps 657 mmHg 46%
    19:00 +19°C° 0 mm 2 mps 658 mmHg 51%
    20:00 +18°C° 0 mm 2 mps 658 mmHg 57%
    21:00 +18°C° 0 mm 1 mps 658 mmHg 58%
    22:00 +18°C° 0 mm 1 mps 658 mmHg 60%
    23:00 +16°C° 0 mm 1 mps 658 mmHg 62%

    Day after tomorrow, 23 September, Sunday

    Time Temperature Precipitation Wind Pressure Humidity
    00:00 +16°C° 0 mm 1 mps 657 mmHg 62%
    01:00 +15°C° 0 mm 1 mps 657 mmHg 63%
    02:00 +15°C° 0 mm 1 mps 657 mmHg 63%
    03:00 +15°C° 0 mm 1 mps 657 mmHg 63%
    04:00 +14°C° 0 mm 1 mps 657 mmHg 63%
    05:00 +14°C° 0 mm 1 mps 657 mmHg 64%
    06:00 +15°C° 0 mm 1 mps 657 mmHg 59%
    07:00 +16°C° 0 mm 1 mps 658 mmHg 54%
    08:00 +16°C° 0 mm 0 mps 658 mmHg 50%
    09:00 +20°C° 0 mm 1 mps 658 mmHg 47%
    10:00 +20°C° 0 mm 2 mps 658 mmHg 44%
    11:00 +21°C° 0 mm 2 mps 658 mmHg 41%
    12:00 +21°C° 0.1 mm 2 mps 658 mmHg 41%
    13:00 +22°C° 0.1 mm 3 mps 657 mmHg 41%
    14:00 +22°C° 0.1 mm 3 mps 657 mmHg 41%
    15:00 +22°C° 0.3 mm 3 mps 657 mmHg 44%
    16:00 +21°C° 0.3 mm 4 mps 657 mmHg 46%
    17:00 +21°C° 0.3 mm 4 mps 657 mmHg 49%
    18:00 +19°C° 0.3 mm 3 mps 657 mmHg 52%
    19:00 +18°C° 0.3 mm 3 mps 658 mmHg 55%
    20:00 +17°C° 0.3 mm 3 mps 658 mmHg 58%
    21:00 +17°C° 0.1 mm 2 mps 658 mmHg 59%
    22:00 +16°C° 0.1 mm 2 mps 658 mmHg 60%
    23:00 +16°C° 0.1 mm 2 mps 658 mmHg 61%

    24 September, Monday

    Time Temperature Precipitation Wind Pressure Humidity
    00:00 +15°C° 0.1 mm 2 mps 658 mmHg 61%
    01:00 +15°C° 0.1 mm 2 mps 658 mmHg 62%
    02:00 +14°C° 0.1 mm 2 mps 658 mmHg 63%
    03:00 +14°C° 0 mm 2 mps 657 mmHg 63%
    04:00 +14°C° 0 mm 1 mps 657 mmHg 63%
    05:00 +13°C° 0 mm 1 mps 657 mmHg 63%
    06:00 +14°C° 0 mm 1 mps 657 mmHg 58%
    07:00 +16°C° 0 mm 1 mps 658 mmHg 53%
    08:00 +18°C° 0 mm 1 mps 658 mmHg 48%
    09:00 +19°C° 0 mm 1 mps 658 mmHg 44%
    10:00 +20°C° 0 mm 2 mps 658 mmHg 40%
    11:00 +21°C° 0 mm 2 mps 658 mmHg 36%
    12:00 +23°C° 0 mm 2 mps 658 mmHg 35%
    13:00 +23°C° 0 mm 2 mps 657 mmHg 33%
    14:00 +24°C° 0 mm 3 mps 657 mmHg 32%
    15:00 +24°C° 0.1 mm 2 mps 657 mmHg 34%
    16:00 +23°C° 0.1 mm 2 mps 657 mmHg 35%
    17:00 +23°C° 0.1 mm 2 mps 657 mmHg 37%
    18:00 +21°C° 0 mm 1 mps 657 mmHg 40%
    19:00 +19°C° 0 mm 1 mps 657 mmHg 42%
    20:00 +18°C° 0 mm 1 mps 657 mmHg 45%
    21:00 +16°C° 0 mm 1 mps 657 mmHg 45%
    22:00 +16°C° 0 mm 1 mps 656 mmHg 45%
    23:00 +15°C° 0 mm 1 mps 656 mmHg 45%

    25 September, Tuesday

    Time Temperature Precipitation Wind Pressure Humidity
    00:00 +15°C° 0 mm 1 mps 656 mmHg 44%
    01:00 +15°C° 0 mm 1 mps 656 mmHg 43%
    02:00 +14°C° 0 mm 1 mps 656 mmHg 42%
    03:00 +14°C° 0 mm 1 mps 656 mmHg 41%
    04:00 +14°C° 0 mm 1 mps 656 mmHg 40%
    05:00 +13°C° 0 mm 1 mps 656 mmHg 39%
    06:00 +15°C° 0 mm 1 mps 656 mmHg 36%
    07:00 +16°C° 0 mm 1 mps 657 mmHg 33%
    08:00 +19°C° 0 mm 1 mps 657 mmHg 30%
    09:00 +20°C° 0 mm 1 mps 657 mmHg 27%
    10:00 +21°C° 0 mm 2 mps 658 mmHg 24%
    11:00 +24°C° 0 mm 2 mps 658 mmHg 21%
    12:00 +24°C° 0 mm 2 mps 657 mmHg 21%
    13:00 +25°C° 0 mm 2 mps 657 mmHg 21%
    14:00 +25°C° 0 mm 2 mps 657 mmHg 21%
    15:00 +25°C° 0 mm 2 mps 657 mmHg 23%
    16:00 +24°C° 0 mm 2 mps 657 mmHg 25%
    17:00 +24°C° 0 mm 1 mps 657 mmHg 27%
    18:00 +22°C° 0 mm 1 mps 657 mmHg 29%
    19:00 +21°C° 0 mm 1 mps 657 mmHg 31%
    20:00 +19°C° 0 mm 1 mps 657 mmHg 33%
    21:00 +19°C° 0 mm 1 mps 657 mmHg 33%
    22:00 +18°C° 0 mm 1 mps 657 mmHg 34%
    23:00 +18°C° 0 mm 1 mps 657 mmHg 34%

    26 September, Wednesday

    Time Temperature Precipitation Wind Pressure Humidity
    00:00 +18°C° 0 mm 1 mps 657 mmHg 35%
    01:00 +18°C° 0 mm 1 mps 657 mmHg 35%
    02:00 +18°C° 0 mm 1 mps 657 mmHg 35%
    03:00 +16°C° 0 mm 1 mps 657 mmHg 35%
    04:00 +16°C° 0 mm 1 mps 657 mmHg 35%
    05:00 +16°C° 0 mm 2 mps 657 mmHg 35%
    06:00 +17°C° 0 mm 2 mps 658 mmHg 33%
    07:00 +18°C° 0 mm 2 mps 658 mmHg 30%
    08:00 +19°C° 0 mm 2 mps 659 mmHg 28%
    09:00 +21°C° 0 mm 2 mps 659 mmHg 25%
    10:00 +24°C° 0 mm 2 mps 659 mmHg 23%
    11:00 +25°C° 0 mm 2 mps 659 mmHg 20%
    12:00 +26°C° 0 mm 2 mps 659 mmHg 19%
    13:00 +27°C° 0 mm 2 mps 658 mmHg 19%
    14:00 +27°C° 0 mm 3 mps 658 mmHg 19%
    15:00 +27°C° 0 mm 2 mps 658 mmHg 20%
    16:00 +26°C° 0 mm 2 mps 658 mmHg 21%
    17:00 +26°C° 0 mm 2 mps 657 mmHg 22%
    18:00 +24°C° 0 mm 2 mps 657 mmHg 24%
    19:00 +21°C° 0 mm 2 mps 657 mmHg 26%
    20:00 +19°C° 0 mm 2 mps 657 mmHg 28%
    21:00 +19°C° 0 mm 2 mps 657 mmHg 28%
    22:00 +18°C° 0 mm 2 mps 656 mmHg 28%
    23:00 +18°C° 0 mm 2 mps 656 mmHg 28%
    Show more